Погода в Шаки

Погода в Шаки : погода сейчас, прогноз погоды и архив. Всё, что Вы хотите узнать о погоде в Шаки!

Поиск расширенной информации на нашем сайте:

Другие новости

Новости СМИ2

Главная страница сайта

Новости сайта

03.07.2017

Напоминаем, что на нашем специализированном сайте Метеоцентр.Азия вы можете получить высокодетализированные автоматические прогнозы погоды по пунктам России, СНГ и мира в авиационном формате (включающие направление и скорость ветра, видимость, явления погоды, количество и форму облачности, нижнюю и верхнюю границу облачности).

Рекомендуем: удобные сауны города екатеринбурга

Погода в Шаки - сегодня

Время (UTC), дата Ветер
(°,м/с) 
Видим.   Явления Облачность Т
(°С)
Тd
(°С)
f(%) Тe
(°С)
Pmin
(гПа)
dP
(гПа)
Po
(мм)
O2
(г/м3)
Тmin Tmax R s Состояние
почвы
00 18.10.17 040 (СВ) 20000 м    ясно 
+8.9 +1.1 58 +10  1022.3  0.5  710  277           
03 18.10.17 060 (СВ) 20000 м    ясно 
+7.1 +1.9 69 +8  1023.1  0.3  710  279           
06 18.10.17 250 (З) 20000 м    ясно 
+11.1 +6.2 72 +12  1024.5  2.4  712  275  +6.6         
09 18.10.17 250 (З) 20000 м    ясно 
+15.5 +9.5 67 +19  1024.1  0.8  713  270           
12 18.10.17 260 (З) 20000 м    5/0 верхняя 
[Ci fib]
+15.8 +9.2 65 +17  1024.1  713  270           
15 18.10.17 090 (В) 20000 м    5/0 средняя, верхняя 
[Ac und|Ci fib]
+12.1 +5.9 66 +13  1026.1  0.9  713  274           
18 18.10.17 050 (СВ) 20000 м    ясно 
+10.2 +4.6 68 +10  1027.8  1.1  714  277    +16.3       
21 18.10.17 090 (В) 20000 м    ясно 
+8.3 +4.6 77 +8  1028.3  714  278           
00 19.10.17 050 (СВ) 20000 м    ясно 
+7.9 +4.3 78 +8  1028.4  -0.1  714  279           
03 19.10.17 050 (СВ) 20000 м    ясно 
+7.4 +3.6 77 +7  1028.6  0.1  714  280           
09 19.10.17 270 (З) 20000 м    ясно 
+15.7 +8.2 61 +16  1024.2  -1.7  713  270           
12 19.10.17 290 (З) 20000 м    ясно 
+17 +9.5 61 +20  1021.6  -2.1  711  268           
15 19.10.17 030 (СВ) 20000 м    ясно 
+13.3 +8.1 71 +15  1022.5  -0.1  711  272           
21 19.10.17 050 (СВ) 20000 м    ясно 
+10.2 +6.8 79 +11  1022.6  -0.4  711  275           
00 20.10.17 040 (СВ) 20000 м    ясно 
+9.3 +6.1 80 +10  1022.1  -0.9  710  276           
03 20.10.17 030 (СВ) 20000 м    ясно 
+8.2 +5.3 82 +8  1021.5  -0.7  709  277           
09 20.10.17 240 (ЮЗ) 20000 м    ясно 
+16.2 +9.7 65 +20  1019.1  709  268           
12 20.10.17 280 (З) 20000 м    ясно 
+16.7 +8.8 60 +19  1018.1  -0.7  709  267           
15 20.10.17 050 (СВ) 20000 м    ясно 
+12.1 +7.8 75 +13  1019.4  709  272           
21 20.10.17 060 (СВ) 20000 м    ясно 
+10.7 +6.4 75 +11  1020.6  -0.6  709  274           
00 21.10.17 050 (СВ) 20000 м    ясно 
+9.8 +5.6 75 +10  1020.7  -0.3  709  275           
03 21.10.17 050 (СВ) 20000 м    ясно 
+8.6 +4.5 75 +9  1020.4  0.4  709  276           
06 21.10.17 290 (З) 20000 м    ясно 
+12.7 +6.7 67 +14  1020.2  0.9  709  272  +8.4         
09 21.10.17 280 (З) 20000 м    ясно 
+15.6 +9.4 67 +17  1018.7  -0.6  709  268           
12 21.10.17 240 (ЮЗ) 20000 м    ясно 
+16.3 +9.2 63 +19  1016.2  -2.2  707  267           
Время (UTC), дата Ветер
(°,м/с) 
Видим.   Явления Облачность Т
(°С)
Тd
(°С)
f(%) Тe
(°С)
Pmin
(гПа)
dP
(гПа)
Po
(мм)
O2
(г/м3)
Тmin Tmax R s Состояние
почвы

Для получения пояснительной информации подведите курсор к названию столбца.

ПОГОДА в Шаки - архив

Всё, что Вы хотите узнать о погоде в Шаки - удобно и подробно!

Выберите нужную дату (начиная с 1 января 2015* года) и нажмите кнопку "Найти".
Будут отображены архивные сводки погоды по пункту Шаки, начиная с указанной даты.


Отображать данные в формате CSV (для использования в таблицах Excel)


Внимание! Наш архив погоды предназначен исключительно для личного некоммерческого использования в познавательных целях. Если Вам необходимы официальные справки о состоянии погоды (для производственных, юридических, коммерческих и т.п. целей), обращайтесь в органы Росгидромета.

*Примечание: данная дата относится к архиву по метеостанциям СССР (Россия, СНГ, Балтия).
Архив по метеостанциям Зарубежной Европы и Азии (кроме Китая) хранится 10 дней, по другим регионам земного шара (Китай, Африка, Америка, Австралия, Океания) - 1 день.

Шаки - район местоположения метеостанции


Название, широта, долгота, высота метеостанции:
Шаки 41.2°ш. 47.2°д. 641 м над ур. моря [Азербайджан]

Дополнительная информация

В oтличие oт бoльшинства пoгoдных сайтoв мы публикуем пoдрoбную метеoинфoрмацию в детальнoм прoфессиoнальнoм фoрмате.

Характеристики температуры и влажнoсти вoздуха измеряются на высoте 2 м в тени вдали oт зданий и деревьев.
Скoрoсть ветра измеряется на высoте 10 м (на урoвне рoста челoвека скoрoсть ветра ниже в 1.5-2 раза). Если метеoстанция нахoдится в гoрoде или в лесу, тo скoрoсть ветра занижена на 2-4 м/с пo сравнению с oткрытым местoм. Скoрoсть ветра над акватoриями крупных рек и oзёр, а также на вершинах хoлмoв на 2-5 м/с выше, чем в oбычных услoвиях.
Атмoсфернoе давление в разных тoчках местнoсти мoжет значительнo oтличаться oт давления на метеoстанции, в зависимoсти oт услoвий рельефа (при пoдъёме на 10 м давление пoнижается примернo на 1 мм рт.ст.).